Home   Weather   Tromsø   Past weeks
Flag for Norway

Past Weather in Tromsø, Norway — Yesterday and Last 2 Weeks

Now
20 °F

Low clouds.


Feels Like: 20 °F
Forecast: 26 / 20 °F
Wind: 1 mph from South

Location: Tromso / Langnes

Current Time: Jan 19, 2019 at 9:21:28 am

Latest Report: Jan 19, 2019 at 8:00 am


Visibility: 22 mi

Pressure: 29.44 "Hg

Humidity: 94%

Dew Point: 19 °F

Location of TromsøLocation

Past Weather in Tromsø — Graph

°F

Tromsø Temperature Yesterday

Maximum temperature yesterday: 23 °F (at 6:00 pm)
Minimum temperature yesterday: 21 °F (at 12:00 am)
Average temperature yesterday: 22 °F

High & Low Weather Summary for the Past Weeks

 TemperatureHumidityPressure
High42 °F (Jan 10, 2:00 pm)99% (Jan 11, 12:00 am)30.03 "Hg (Jan 11, 12:00 am)
Low13 °F (Jan 14, 4:00 am)60% (Jan 6, 8:00 pm)28.35 "Hg (Jan 11, 1:00 am)
Average29 °F87%29.35 "Hg
* Reported Jan 4 7:00 am — Jan 19 7:00 am, Tromsø. Weather by CustomWeather, © 2019

Note: Actual official high and low records may vary slightly from our data, if they occured in-between our weather recording intervals... More about our weather records

Advertising

Tromsø Weather History for the Previous 24 Hours

Scroll right to see more
 ConditionsComfort  
Time TempWeatherWind HumidityBarometerVisibility
7:00 am
Sat, Jan 19
20 °FLow clouds.1 mph91%29.44 "Hg28 mi
6:00 am21 °FLow clouds.1 mph94%29.44 "Hg28 mi
5:00 am18 °FLow clouds.1 mph88%29.44 "Hg28 mi
4:00 am22 °FLow clouds.1 mph90%29.44 "Hg31 mi
3:00 am22 °FLow clouds.2 mph90%29.41 "Hg31 mi
1:00 am23 °FLow clouds.3 mph92%29.41 "Hg31 mi
12:00 am23 °FLow clouds.5 mph93%29.41 "Hg31 mi
11:00 pm
Fri, Jan 18
23 °FLow clouds.5 mph92%29.41 "Hg31 mi
10:00 pm22 °FLow clouds.5 mph92%29.41 "Hg28 mi
9:00 pm23 °FLow clouds.5 mph89%29.41 "Hg31 mi
8:00 pm23 °FLow clouds.6 mph91%29.41 "Hg31 mi
7:00 pm23 °FLow clouds.5 mph92%29.41 "Hg28 mi
6:00 pm23 °FSnow flurries. Low clouds.5 mph93%29.41 "Hg19 mi
5:00 pm23 °FLight snow. Ice fog.5 mph93%29.41 "Hg1 mi
4:00 pm23 °FLight snow. Low clouds.6 mph89%29.41 "Hg4 mi
2:00 pm22 °FHeavy snow. Overcast.7 mph93%29.38 "Hg1 mi
1:00 pm22 °FLight snow. Ice fog.6 mph91%29.38 "Hg1 mi
12:00 pm22 °FLight snow. Low clouds.6 mph89%29.35 "Hg2 mi
11:00 am22 °FLow clouds.3 mph88%29.35 "Hg19 mi
10:00 am22 °FSnow flurries. Low clouds.5 mph89%29.35 "Hg22 mi
9:00 am22 °FSnow flurries. Low clouds.3 mph89%29.32 "Hg6 mi
Weather by CustomWeather, © 2019

See weather overview